Date,TemperatureHighF,TemperatureAvgF,TemperatureLowF,DewpointHighF,DewpointAvgF,DewpointLowF,HumidityHigh,HumidityAvg,HumidityLow,PressureMaxIn,PressureMinIn,WindSpeedMaxMPH,WindSpeedAvgMPH,GustSpeedMaxMPH,PrecipitationSumIn
2013-8-1,76,65,55,-100,-100,-100,0,0,100,0.00,40.00,0,-999,0,0.00
2013-8-2,79,64,53,-100,-100,-100,0,0,100,0.00,40.00,0,-999,0,0.00
2013-8-3,79,66,57,-100,-100,-100,0,0,100,0.00,40.00,0,-999,0,0.00
2013-8-4,79,64,56,-100,-100,-100,0,0,100,0.00,40.00,0,-999,0,0.00
2013-8-5,77,64,54,-100,-100,-100,0,0,100,0.00,40.00,0,-999,0,0.00
2013-8-6,78,63,54,-100,-100,-100,0,0,100,0.00,40.00,0,-999,0,0.00
2013-8-7,76,61,51,-100,-100,-100,0,0,100,0.00,40.00,0,-999,0,0.00
2013-8-8,69,57,49,-100,-100,-100,0,0,100,0.00,40.00,0,-999,0,0.00
2013-8-9,75,59,49,-100,-100,-100,0,0,100,0.00,40.00,0,-999,0,0.00
2013-8-10,76,60,52,-100,-100,-100,0,0,100,0.00,40.00,0,-999,0,0.00
2013-8-11,76,59,45,-100,-100,-100,0,0,100,0.00,40.00,0,-999,0,0.00
2013-8-12,67,60,56,-100,-100,-100,0,0,100,0.00,40.00,0,-999,0,0.00
2013-8-13,71,59,52,-100,-100,-100,0,0,100,0.00,40.00,0,-999,0,0.00
2013-8-14,77,65,54,-100,-100,-100,0,0,100,0.00,40.00,0,-999,0,0.00
2013-8-15,81,65,54,-100,-100,-100,0,0,100,0.00,40.00,0,-999,0,0.00
2013-8-16,81,69,56,-100,-100,-100,0,0,100,0.00,40.00,0,-999,0,0.00
2013-8-17,84,69,58,-100,-100,-100,0,0,100,0.00,40.00,0,-999,0,0.00
2013-8-18,80,65,56,-100,-100,-100,0,0,100,0.00,40.00,0,-999,0,0.00
2013-8-19,80,66,55,-100,-100,-100,0,0,100,0.00,40.00,0,-999,0,0.00
2013-8-20,80,62,56,-100,-100,-100,0,0,100,0.00,40.00,0,-999,0,0.00
2013-8-21,80,65,57,-100,-100,-100,0,0,100,0.00,40.00,0,-999,0,0.00
2013-8-22,76,60,54,-100,-100,-100,0,0,100,0.00,40.00,0,-999,0,0.00
2013-8-23,78,66,54,-100,-100,-100,0,0,100,0.00,40.00,0,-999,0,0.00
2013-8-24,75,64,51,-100,-100,-100,0,0,100,0.00,40.00,0,-999,0,0.00
2013-8-25,76,64,54,-100,-100,-100,0,0,100,0.00,40.00,0,-999,0,0.00
2013-8-26,79,66,52,-100,-100,-100,0,0,100,0.00,40.00,0,-999,0,0.00
2013-8-27,79,62,52,-100,-100,-100,0,0,100,0.00,40.00,0,-999,0,0.00
2013-8-28,83,73,63,-100,-100,-100,0,0,100,0.00,40.00,0,-999,0,0.00
2013-8-29,79,63,56,-100,-100,-100,0,0,100,0.00,40.00,0,-999,0,0.00
2013-8-30,84,64,56,-100,-100,-100,0,0,100,0.00,40.00,0,-999,0,0.00
2013-8-31,84,67,56,-100,-100,-100,0,0,100,0.00,40.00,0,-999,0,0.00